Del Bajio, Mexico

2:21 AM CDT on September 21, 2017 (GMT -0500)
De Guanajuato International

Weather History for MMLO - April, 2012

Change the Weather History Date:

Tuesday, April 24, 2012

  Actual Average Record
Temperature  
Mean Temperature 70 °F -  
Max Temperature 93 °F 87 °F 95 °F (2008)
Min Temperature 48 °F 54 °F 46 °F (2016)
Cooling Degree Days 6    
Growing Degree Days 20 (Base 50)    
Moisture  
Dew Point 20 °F    
Average Humidity 18    
Maximum Humidity 37    
Minimum Humidity 6    
Precipitation  
Precipitation 0.00 in - - ()
Sea Level Pressure  
Sea Level Pressure 30.08 in    
Wind  
Wind Speed 4 mph ()    
Max Wind Speed 13 mph    
Max Gust Speed -    
Visibility 9.1 miles    
Events      
Averages and records for this station are not official NWS values.
T = Trace of Precipitation, MM = Missing Value Source: Averaged Metar Reports

Daily Weather History Graph

Daily Weather History Graph

Search for Another Location

Airport or City:

Trip Planner

Search our weather history database for the weather conditions in past years. The results will help you decide how hot, cold, wet, or windy it might be!

Date:

Astronomy

Apr. 24, 2012 Rise Set
Actual Time 7:19 AM CDT 8:08 PM CDT
Civil Twilight 6:56 AM CDT 8:31 PM CDT
Nautical Twilight 6:29 AM CDT 8:58 PM CDT
Astronomical Twilight 6:02 AM CDT 9:25 PM CDT
Moon 9:35 AM CDT (4/24) 11:11 PM CDT (4/24)
Length of Visible Light 13h 34m
Length of Day
12h 48m
Waxing Crescent, 10% of the Moon is Illuminated
Apr 24
Waxing Crescent
Apr 29
First Quarter
May 5
Full
May 12
Last Quarter
May 20
New

Hourly Weather History & Observations

Time (CDT) Temp. Dew Point Humidity Pressure Visibility Wind Dir Wind Speed Gust Speed Precip Events Conditions
12:43 AM 64.4 °F 10.4 °F 12% 29.78 in 8.0 mi ENE 11.5 mph - N/A   Clear
1:45 AM 60.8 °F 19.4 °F 20% 30.27 in 8.0 mi ENE 3.5 mph - N/A   Clear
2:43 AM 59.0 °F 19.4 °F 22% 30.27 in 8.0 mi Calm Calm - N/A   Clear
3:43 AM 55.4 °F 28.4 °F 36% 29.83 in 8.0 mi Calm Calm - N/A   Clear
4:44 AM 53.6 °F 24.8 °F 33% 30.27 in 8.0 mi East 5.8 mph - N/A   Clear
5:44 AM 53.6 °F 24.8 °F 33% 30.27 in 8.0 mi Calm Calm - N/A   Clear
6:45 AM 48.2 °F 23.0 °F 37% 29.92 in 8.0 mi Calm Calm - N/A   Clear
7:43 AM 50.0 °F 23.0 °F 35% 30.29 in 10.0 mi Calm Calm - N/A   Scattered Clouds
8:46 AM 60.8 °F 26.6 °F 27% 30.30 in 10.0 mi Calm Calm - N/A   Partly Cloudy
9:45 AM 68.0 °F 26.6 °F 21% 29.92 in 10.0 mi Calm Calm - N/A   Clear
10:44 AM 75.2 °F 15.8 °F 11% 30.29 in 9.0 mi SSE 6.9 mph - N/A   Clear
11:41 AM 80.6 °F 14.0 °F 8% 30.29 in 10.0 mi Calm Calm - N/A   Partly Cloudy
12:43 PM 84.2 °F 19.4 °F 9% 29.82 in 10.0 mi South 11.5 mph - N/A   Scattered Clouds
1:43 PM 84.2 °F 17.6 °F 8% 30.22 in 10.0 mi West 6.9 mph - N/A   Scattered Clouds
2:40 PM 89.6 °F 19.4 °F 8% 30.21 in 10.0 mi WNW 4.6 mph - N/A   Scattered Clouds
3:42 PM 93.2 °F 17.6 °F 6% 29.67 in 10.0 mi WNW 4.6 mph - N/A   Scattered Clouds
5:02 PM 87.8 °F 15.8 °F 7% 30.12 in 10.0 mi NW 9.2 mph - N/A   Scattered Clouds
5:43 PM 84.2 °F 17.6 °F 8% 30.12 in 10.0 mi NE 10.4 mph - N/A   Scattered Clouds
6:45 PM 82.4 °F 17.6 °F 9% 29.73 in 10.0 mi ENE 4.6 mph - N/A   Scattered Clouds
7:52 PM 80.6 °F 19.4 °F 10% 30.12 in 10.0 mi ENE 11.5 mph - N/A   Scattered Clouds
8:44 PM 75.2 °F 26.6 °F 17% 30.15 in 8.0 mi East 10.4 mph - N/A   Scattered Clouds
9:42 PM 73.4 °F 23.0 °F 15% 29.76 in 8.0 mi East 10.4 mph - N/A   Scattered Clouds
10:44 PM 71.6 °F 19.4 °F 14% 30.19 in 8.0 mi ENE 12.7 mph - N/A   Scattered Clouds